Weather History for Covington, KY

Change the Weather History Date:

Thursday, June 13, 2013

  Actual Average Record
Temperature  
Mean Temperature 73 °F 72 °F  
Max Temperature 82 °F 82 °F 94 °F (1976)
Min Temperature 64 °F 62 °F 44 °F (1963)
Degree Days  
Heating Degree Days 0 0  
Month to date heating degree days 1 12  
Since 1 June heating degree days 1 12  
Since 1 July heating degree days 4981 4972  
Cooling Degree Days 8 7  
Month to date cooling degree days 81 76  
Year to date cooling degree days 220 170  
Since 1 June cooling degree days 81 76  
Growing Degree Days 23 (Base 50)    
Moisture  
Dew Point 65 °F    
Average Humidity 72    
Maximum Humidity 97    
Minimum Humidity 47    
Precipitation  
Precipitation 0.67 in 0.14 in 1.90 in (1881)
Month to date precipitation 1.75 1.91  
Year to date precipitation 19.63 20.50  
Snow  
Snow 0.00 in 0.00 in - (0.0)
Month to date snowfall 0.0 0.0  
Since 1 June snowfall 0.0 0.0  
Since 1 July snowfall 25.2 22.1  
Snow Depth 0.00 in    
Sea Level Pressure  
Sea Level Pressure 29.75 in    
Wind  
Wind Speed 13 mph (NW)    
Max Wind Speed 32 mph    
Max Gust Speed 46 mph    
Visibility 8 miles    
Events Rain , Thunderstorm    
T = Trace of Precipitation, MM = Missing Value Source: NWS Daily Summary

Daily Weather History Graph

Daily Weather History Graph

Search for Another Location

Airport:

Trip Planner

Search our weather history database for the weather conditions in past years. The results will help you decide how hot, cold, wet, or windy it might be!

Date:

Astronomy

Jun. 13, 2013 Rise Set
Actual Time 6:12 AM EDT 9:05 PM EDT
Civil Twilight 5:40 AM EDT 9:37 PM EDT
Nautical Twilight 4:59 AM EDT 10:18 PM EDT
Astronomical Twilight 4:13 AM EDT 11:04 PM EDT
Moon 10:46 AM EDT (6/13) No Moon Set
Length of Visible Light 15h 57m
Length of Day
14h 53m
Waxing Crescent, 21% of the Moon is Illuminated
Jun 13
Waxing Crescent
Jun 16
First Quarter
Jun 23
Full
Jun 30
Last Quarter
Jul 8
New

Hourly Weather History & Observations

Time (EDT) Temp. Heat Index Dew Point Humidity Pressure Visibility Wind Dir Wind Speed Gust Speed Precip Events Conditions
1:52 AM 81.0 °F 85.2 °F 72.0 °F 74% 29.68 in 10.0 mi SW 13.8 mph 19.6 mph N/A   Overcast
2:52 AM 82.0 °F 86.7 °F 72.0 °F 71% 29.65 in 10.0 mi SW 15.0 mph 25.3 mph N/A   Overcast
3:52 AM 81.0 °F 85.2 °F 72.0 °F 74% 29.64 in 10.0 mi SW 15.0 mph 23.0 mph N/A   Overcast
4:52 AM 80.1 °F 83.8 °F 72.0 °F 76% 29.64 in 10.0 mi WSW 10.4 mph 19.6 mph 0.00 in   Overcast
5:40 AM 80.6 °F 83.9 °F 69.8 °F 70% 29.67 in 10.0 mi WSW 10.4 mph 20.7 mph N/A Thunderstorm Thunderstorm
5:52 AM 80.1 °F 83.2 °F 70.0 °F 71% 29.63 in 10.0 mi WSW 12.7 mph 19.6 mph N/A Thunderstorm Thunderstorm
6:32 AM 80.6 °F 83.9 °F 69.8 °F 70% 29.67 in 9.0 mi WSW 11.5 mph 20.7 mph N/A   Mostly Cloudy
6:52 AM 79.0 °F - 70.0 °F 74% 29.63 in 9.0 mi SW 12.7 mph - N/A   Mostly Cloudy
7:52 AM 80.1 °F 83.6 °F 71.1 °F 74% 29.62 in 9.0 mi SW 11.5 mph 18.4 mph N/A   Scattered Clouds
8:52 AM 79.0 °F - 71.1 °F 77% 29.62 in 8.0 mi WSW 11.5 mph 19.6 mph N/A   Overcast
9:03 AM 78.8 °F - 71.6 °F 78% 29.69 in 8.0 mi NW 27.6 mph 46.0 mph N/A Thunderstorm Thunderstorm
9:08 AM 71.6 °F - 66.2 °F 83% 29.71 in 1.0 mi NNW 23.0 mph 46.0 mph 0.00 in Rain , Thunderstorm Thunderstorms and Rain
9:12 AM 68.0 °F - 66.2 °F 94% 29.70 in 0.8 mi NNW 18.4 mph 46.0 mph 0.06 in Rain , Thunderstorm Thunderstorms and Rain
9:17 AM 68.0 °F - 66.2 °F 94% 29.74 in 1.0 mi West 12.7 mph 29.9 mph 0.17 in Rain , Thunderstorm Thunderstorms and Rain
9:21 AM 66.2 °F - 66.2 °F 100% 29.74 in 0.8 mi West 24.2 mph 34.5 mph 0.36 in Rain , Thunderstorm Heavy Thunderstorms and Rain
9:27 AM 68.0 °F - 66.2 °F 94% 29.69 in 4.0 mi WNW 16.1 mph 34.5 mph 0.62 in Rain , Thunderstorm Light Thunderstorms and Rain
9:36 AM 69.8 °F - 66.2 °F 88% 29.72 in 7.0 mi NW 13.8 mph - 0.66 in Rain , Thunderstorm Light Thunderstorms and Rain
9:52 AM 68.0 °F - 66.9 °F 96% 29.69 in 8.0 mi NNW 9.2 mph - 0.66 in   Overcast
10:52 AM 70.0 °F - 68.0 °F 93% 29.70 in 10.0 mi NNW 9.2 mph - N/A   Mostly Cloudy
10:59 AM 69.8 °F - 68.0 °F 94% 29.75 in 10.0 mi NW 11.5 mph - N/A   Mostly Cloudy
11:13 AM 71.6 °F - 68.0 °F 88% 29.75 in 10.0 mi NW 13.8 mph - N/A   Overcast
11:37 AM 71.6 °F - 66.2 °F 83% 29.77 in 10.0 mi NW 11.5 mph - N/A   Overcast
11:52 AM 72.0 °F - 66.9 °F 84% 29.74 in 10.0 mi NW 11.5 mph - N/A   Overcast
12:28 PM 71.6 °F - 66.2 °F 83% 29.79 in 10.0 mi NNW 20.7 mph 26.5 mph N/A   Overcast
12:52 PM 71.1 °F - 64.9 °F 81% 29.77 in 10.0 mi NNW 10.4 mph - 0.00 in   Overcast
1:34 PM 75.2 °F - 66.2 °F 73% 29.81 in 10.0 mi NW 9.2 mph - 0.00 in   Mostly Cloudy
1:52 PM 69.1 °F - 64.9 °F 87% 29.79 in 7.0 mi NNW 16.1 mph 28.8 mph 0.01 in Rain Light Rain
2:01 PM 69.8 °F - 66.2 °F 88% 29.82 in 10.0 mi NNW 17.3 mph - 0.00 in   Mostly Cloudy
2:52 PM 73.9 °F - 62.1 °F 66% 29.81 in 10.0 mi North 15.0 mph - 0.00 in   Scattered Clouds
3:52 PM 77.0 °F - 57.9 °F 52% 29.82 in 10.0 mi North 13.8 mph 23.0 mph N/A   Partly Cloudy
4:52 PM 75.9 °F - 55.9 °F 50% 29.83 in 10.0 mi NNW 18.4 mph 26.5 mph N/A   Scattered Clouds
5:52 PM 77.0 °F - 55.9 °F 48% 29.83 in 10.0 mi NW 17.3 mph - N/A   Partly Cloudy
6:52 PM 77.0 °F - 55.0 °F 47% 29.83 in 10.0 mi NNW 18.4 mph 25.3 mph N/A   Partly Cloudy
7:52 PM 75.9 °F - 55.0 °F 48% 29.84 in 10.0 mi NW 16.1 mph 23.0 mph N/A   Partly Cloudy
8:52 PM 73.0 °F - 55.0 °F 53% 29.86 in 10.0 mi NW 9.2 mph - N/A   Partly Cloudy
9:52 PM 70.0 °F - 55.0 °F 59% 29.89 in 10.0 mi NW 12.7 mph - N/A   Clear
10:52 PM 68.0 °F - 54.0 °F 61% 29.92 in 10.0 mi NW 10.4 mph - N/A   Clear
11:52 PM 66.0 °F - 54.0 °F 65% 29.93 in 10.0 mi NNW 8.1 mph - N/A   Clear